Location: Unspecified
(41.1637°N, 24.2901°E)
Time: 10:55:14
(UTC+02:00)

ISS - Pass Details

Date: 08 May 2026
Orbit: 414 x 424 km, 51.6° (Epoch: 12 May)

Event Time Altitude Azimuth Distance (km) Brightness Sun altitude
Exits shadow 02:34:32 10° 322° (NW) 1,474 -0.8 -23.9°
Maximum altitude 02:37:28 29° 25° (NNE) 793 -1.7 -23.6°
Drops below altitude 10° 02:40:28 10° 88° (E) 1,497 -0.5 -23.2°
Sets 02:42:44 0° 100° (E) 2,361 0.4 -23.0°
